Project,Study,Ord_Occ,Event_Num,Cast_ID,Date_Time_UTC,Date_Time_PST,Lat_Dec,Lon_Dec,Sta_ID,Line,Sta,Depth,Pressure,PrQ,Temp1,Temp1Q,Temp2,Temp2Q,TempAve,Salt1,Salt1Q,Salt1_Corr,Salt2,Salt2Q,Salt2_Corr,SaltAve_Corr,Ox1,Ox1Q,Ox1_CruiseCorr,Ox1_StaCorr,Ox2,Ox2Q,Ox2_CruiseCorr,Ox2_StaCorr,OxAve_StaCorr,Ox1uM,Ox1uM_CruiseCorr,Ox1uM_StaCorr,Ox2uM,Ox2uM_CruiseCorr,Ox2uM_StaCorr,OxAveuM_StaCorr,FluorV,FluorQ,EstChl_CruiseCorr,EstChl_StaCorr,ISUSV,ISUSQ,EstNO3_CruiseCorr,EstNO3_StaCorr,SigThetaTS1,SigThetaTS1Q,SigThetaTS2,SigThetaTS2Q,BAT,XMiss,TransQ,pH,pHQ,SPAR,SPARQ,PAR,PARQ,PoT1,PoT2,DynHt,SVA,OxSat1,OxSat2,BTL_Depth,BTL_Temp,SaltB,OxB,OxBuM,Chl-a,Phaeo,NO3,NO2,NH4,PO4,SIL
CalCOFI,2101RL,074,,2101_074d,03-Feb-2021 03:00:19,02-Feb-2021 19:00:19,36.18034,-121.72519,070.0 051.0,070.0,051.0,3.000,3.022,,12.6837,,12.6857,,12.6847,33.3087,,33.3145,33.3068,,33.3088,33.3117,5.5894,,5.8498,5.7465,5.4729,,5.8108,5.7248,5.7357,243.498,255.1539,250.7514,238.426,271.2260,249.8077,250.2796,0.1821,,1.2439,, ,, , ,25.1449,,25.1431,,1.0907,76.1341,,,,3.6025E+00,,1.0000E-12,,12.6833,12.6853,-0.0007,281.057,92.698,90.770,3,,33.3004,5.891,257.04,,,,,,,
CalCOFI,2101RL,074,,2101_074d,03-Feb-2021 03:00:27,02-Feb-2021 19:00:27,36.18038,-121.72522,070.0 051.0,070.0,051.0,4.000,4.030,,12.6908,,12.6903,,12.6906,33.3078,,33.3136,33.3066,,33.3086,33.3111,5.5817,,5.8417,5.7384,5.4855,,5.8241,5.7383,5.7384,243.165,254.8053,250.4014,238.975,270.8557,250.3988,250.4001,0.1718,,1.1595,, ,, , ,25.1429,,25.1421,,1.0941,76.0701,,,,3.4098E+00,,1.0000E-12,,12.6902,12.6898,0.0028,281.278,92.584,90.987,,,,,,,,,,,,
CalCOFI,2101RL,074,,2101_074d,03-Feb-2021 03:00:30,02-Feb-2021 19:00:30,36.18040,-121.72522,070.0 051.0,070.0,051.0,5.000,5.037,,12.6868,,12.6878,,12.6873,33.3084,,33.3142,33.3068,,33.3088,33.3115,5.5824,,5.8424,5.7391,5.4966,,5.8359,5.7502,5.7447,243.197,254.8388,250.4350,239.458,270.8913,250.9189,250.6770,0.1683,,1.1309,, ,, , ,25.1442,,25.1428,,1.0909,76.1302,,,,3.6261E+00,,1.0000E-12,,12.6861,12.6871,0.0057,281.185,92.589,91.166,,,,,,,,,,,,
CalCOFI,2101RL,074,,2101_074d,03-Feb-2021 03:00:33,02-Feb-2021 19:00:33,36.18040,-121.72522,070.0 051.0,070.0,051.0,6.000,6.044,,12.6842,,12.6832,,12.6837,33.3087,,33.3145,33.3074,,33.3094,33.3120,5.5753,,5.8350,5.7317,5.5006,,5.8402,5.7546,5.7432,242.888,254.5154,250.1102,239.632,270.5477,251.1062,250.6082,0.1706,,1.1497,, ,, , ,25.1449,,25.1441,,1.0934,76.0819,,,,3.5430E+00,,1.0000E-12,,12.6834,12.6824,0.0085,281.136,92.467,91.225,,,,,,,,,,,,
CalCOFI,2101RL,074,,2101_074d,03-Feb-2021 03:00:36,02-Feb-2021 19:00:36,36.18040,-121.72520,070.0 051.0,070.0,051.0,7.000,7.052,,12.6823,,12.6836,,12.6830,33.3093,,33.3151,33.3076,,33.3096,33.3124,5.5806,,5.8406,5.7372,5.5050,,5.8449,5.7593,5.7483,243.118,254.7561,250.3520,239.824,270.8034,251.3130,250.8325,0.1704,,1.1481,, ,, , ,25.1458,,25.1443,,1.0928,76.0935,,,,3.7040E+00,,1.0000E-12,,12.6814,12.6827,0.0113,281.080,92.551,91.298,,,,,,,,,,,,
CalCOFI,2101RL,074,,2101_074d,03-Feb-2021 03:00:38,02-Feb-2021 19:00:38,36.18040,-121.72520,070.0 051.0,070.0,051.0,8.000,8.059,,12.6842,,12.6845,,12.6844,33.3089,,33.3147,33.3073,,33.3093,33.3120,5.5738,,5.8334,5.7301,5.5056,,5.8455,5.7599,5.7450,242.820,254.4442,250.0387,239.848,270.4720,251.3388,250.6888,0.1624,,1.0825,, ,, , ,25.1451,,25.1438,,1.0916,76.1174,,,,3.6947E+00,,1.0000E-12,,12.6831,12.6834,0.0141,281.169,92.441,91.309,,,,,,,,,,,,
CalCOFI,2101RL,074,,2101_074d,03-Feb-2021 03:00:42,02-Feb-2021 19:00:42,36.18040,-121.72522,070.0 051.0,070.0,051.0,9.000,9.067,,12.6833,,12.6833,,12.6833,33.3090,,33.3148,33.3076,,33.3096,33.3122,5.5678,,5.8272,5.7238,5.5014,,5.8410,5.7554,5.7396,242.560,254.1720,249.7654,239.665,270.1829,251.1418,250.4536,0.1615,,1.0751,, ,, , ,25.1454,,25.1443,,1.0902,76.1426,,,,3.5928E+00,,1.0000E-12,,12.6821,12.6821,0.0170,281.168,92.341,91.237,,,,,,,,,,,,
CalCOFI,2101RL,074,,2101_074d,03-Feb-2021 03:00:44,02-Feb-2021 19:00:44,36.18040,-121.72522,070.0 051.0,070.0,051.0,10.000,10.074,,12.6729,,12.6746,,12.6738,33.3133,,33.3191,33.3111,,33.3131,33.3161,5.5635,,5.8227,5.7193,5.4890,,5.8279,5.7421,5.7307,242.371,253.9742,249.5668,239.125,269.9728,250.5603,250.0636,0.1485,,0.9686,, ,, , ,25.1508,,25.1488,,1.0923,76.1032,,,,3.6915E+00,,1.0000E-12,,12.6715,12.6732,0.0198,280.684,92.251,91.017,,,,,,,,,,,,
CalCOFI,2101RL,074,,2101_074d,03-Feb-2021 03:00:47,02-Feb-2021 19:00:47,36.18039,-121.72522,070.0 051.0,070.0,051.0,11.000,11.081,,12.6629,,12.6624,,12.6627,33.3172,,33.3230,33.3156,,33.3176,33.3203,5.5789,,5.8388,5.7354,5.4888,,5.8277,5.7419,5.7387,243.040,254.6745,250.2700,239.117,270.7167,250.5517,250.4109,0.1538,,1.0121,, ,, , ,25.1558,,25.1547,,1.1000,75.9579,,,,3.6947E+00,,1.0000E-12,,12.6614,12.6609,0.0226,280.232,92.490,90.995,11,,33.3102,5.874,256.32,,,,,,,
CalCOFI,2101RL,074,,2101_074d,03-Feb-2021 03:00:51,02-Feb-2021 19:00:51,36.18037,-121.72522,070.0 051.0,070.0,051.0,12.000,12.089,,12.6655,,12.6660,,12.6658,33.3205,,33.3263,33.3191,,33.3211,33.3237,5.5554,,5.8142,5.7108,5.4835,,5.8220,5.7362,5.7235,242.014,253.6005,249.1915,238.882,269.5758,250.2987,249.7451,0.1414,,0.9104,, ,, , ,25.1578,,25.1567,,1.0859,76.2264,,,,3.6947E+00,,1.0000E-12,,12.6639,12.6644,0.0255,280.067,92.106,90.914,,,,,,,,,,,,
CalCOFI,2101RL,074,,2101_074d,03-Feb-2021 03:00:53,02-Feb-2021 19:00:53,36.18036,-121.72522,070.0 051.0,070.0,051.0,13.000,13.096,,12.6738,,12.6741,,12.6740,33.3305,,33.3363,33.3289,,33.3309,33.3336,5.5451,,5.8034,5.6999,5.4804,,5.8187,5.7328,5.7164,241.567,253.1325,248.7216,238.747,269.0787,250.1533,249.4375,0.1378,,0.8809,, ,, , ,25.1640,,25.1627,,1.0698,76.5333,,,,3.6947E+00,,1.0000E-12,,12.6721,12.6724,0.0283,279.503,91.958,90.884,,,,,,,,,,,,
CalCOFI,2101RL,074,,2101_074d,03-Feb-2021 03:00:59,02-Feb-2021 19:00:59,36.18036,-121.72523,070.0 051.0,070.0,051.0,14.000,14.104,,12.6720,,12.6724,,12.6722,33.3284,,33.3342,33.3272,,33.3292,33.3317,5.5580,,5.8169,5.7135,5.4831,,5.8216,5.7357,5.7246,242.130,253.7219,249.3134,238.865,269.7048,250.2804,249.7969,0.1396,,0.8957,, ,, , ,25.1628,,25.1618,,1.0687,76.5535,,,,3.6333E+00,,1.0000E-12,,12.6701,12.6705,0.0325,279.646,92.168,90.925,,,,,,,,,,,,
CalCOFI,2101RL,074,,2101_074d,03-Feb-2021 03:01:10,02-Feb-2021 19:01:10,36.18035,-121.72522,070.0 051.0,070.0,051.0,15.000,15.111,,12.6730,,12.6730,,12.6730,33.3309,,33.3367,33.3302,,33.3322,33.3345,5.5686,,5.8280,5.7246,5.4737,,5.8116,5.7256,5.7251,242.587,254.2003,249.7938,238.456,270.2129,249.8400,249.8169,0.1442,,0.9334,, ,, , ,25.1646,,25.1640,,1.0669,76.5893,,,,3.7119E+00,,1.0000E-12,,12.6710,12.6710,0.0370,279.503,92.345,90.772,,,,,,,,,,,,
CalCOFI,2101RL,074,,2101_074d,03-Feb-2021 03:01:17,02-Feb-2021 19:01:17,36.18034,-121.72522,070.0 051.0,070.0,051.0,16.000,16.119,,12.6721,,12.6720,,12.6721,33.3318,,33.3376,33.3298,,33.3318,33.3347,5.5632,,5.8223,5.7190,5.4805,,5.8188,5.7329,5.7260,242.355,253.9574,249.5499,238.753,269.9550,250.1598,249.8549,0.1478,,0.9629,, ,, , ,25.1654,,25.1639,,1.0550,76.8167,,,,3.6947E+00,,1.0000E-12,,12.6699,12.6699,0.0405,279.448,92.256,90.883,,,,,,,,,,,,
CalCOFI,2101RL,074,,2101_074d,03-Feb-2021 03:01:21,02-Feb-2021 19:01:21,36.18033,-121.72522,070.0 051.0,070.0,051.0,17.000,17.126,,12.6709,,12.6709,,12.6709,33.3305,,33.3363,33.3266,,33.3286,33.3325,5.5675,,5.8268,5.7235,5.4798,,5.8181,5.7322,5.7279,242.540,254.1511,249.7444,238.721,270.1607,250.1253,249.9349,0.1379,,0.8818,, ,, , ,25.1647,,25.1617,,1.0533,76.8496,,,,3.6947E+00,,1.0000E-12,,12.6687,12.6687,0.0436,279.544,92.323,90.867,,,,,,,,,,,,
CalCOFI,2101RL,074,,2101_074d,03-Feb-2021 03:01:27,02-Feb-2021 19:01:27,36.18032,-121.72521,070.0 051.0,070.0,051.0,18.000,18.134,,12.6709,,12.6707,,12.6708,33.3277,,33.3335,33.3243,,33.3263,33.3299,5.5634,,5.8226,5.7192,5.4845,,5.8231,5.7372,5.7282,242.365,253.9679,249.5605,238.928,269.9661,250.3482,249.9544,0.1458,,0.9465,, ,, , ,25.1626,,25.1600,,1.0528,76.8586,,,,3.6446E+00,,1.0000E-12,,12.6685,12.6683,0.0471,279.776,92.255,90.944,,,,,,,,,,,,
CalCOFI,2101RL,074,,2101_074d,03-Feb-2021 03:01:30,02-Feb-2021 19:01:30,36.18032,-121.72520,070.0 051.0,070.0,051.0,19.000,19.141,,12.6715,,12.6715,,12.6715,33.3304,,33.3362,33.3275,,33.3295,33.3329,5.5561,,5.8149,5.7115,5.4724,,5.8102,5.7242,5.7179,242.043,253.6308,249.2220,238.401,269.6080,249.7807,249.5014,0.1361,,0.8670,, ,, , ,25.1646,,25.1623,,1.0551,76.8146,,,,3.6938E+00,,1.0000E-12,,12.6690,12.6689,0.0503,279.611,92.135,90.747,,,,,,,,,,,,
CalCOFI,2101RL,074,,2101_074d,03-Feb-2021 03:01:33,02-Feb-2021 19:01:33,36.18032,-121.72521,070.0 051.0,070.0,051.0,20.000,20.149,,12.6742,,12.6743,,12.6743,33.3335,,33.3393,33.3319,,33.3339,33.3366,5.5505,,5.8091,5.7056,5.4704,,5.8081,5.7221,5.7139,241.800,253.3764,248.9666,238.309,269.3378,249.6817,249.3242,0.1359,,0.8654,, ,, , ,25.1665,,25.1652,,1.0508,76.8966,,,,3.6947E+00,,1.0000E-12,,12.6715,12.6716,0.0531,279.454,92.050,90.720,20,,33.3446,5.719,249.53,,,,,,,
CalCOFI,2101RL,074,,2101_074d,03-Feb-2021 03:01:38,02-Feb-2021 19:01:38,36.18032,-121.72523,070.0 051.0,070.0,051.0,21.000,21.156,,12.6772,,12.6775,,12.6774,33.3359,,33.3417,33.3351,,33.3371,33.3394,5.5359,,5.7938,5.6903,5.4596,,5.7966,5.7105,5.7004,241.166,252.7128,248.3001,237.842,268.6328,249.1788,248.7395,0.1400,,0.8990,, ,, , ,25.1678,,25.1671,,1.0437,77.0339,,,,3.6947E+00,,1.0000E-12,,12.6744,12.6747,0.0560,279.359,91.815,90.550,,,,,,,,,,,,
CalCOFI,2101RL,074,,2101_074d,03-Feb-2021 03:01:42,02-Feb-2021 19:01:42,36.18032,-121.72524,070.0 051.0,070.0,051.0,22.000,22.163,,12.6695,,12.6820,,12.6758,33.3496,,33.3554,33.3487,,33.3507,33.3531,5.4678,,5.7225,5.6188,5.3905,,5.7233,5.6361,5.6275,238.195,249.6027,245.1771,234.827,265.3290,245.9324,245.5548,0.1221,,0.7523,, ,, , ,25.1799,,25.1768,,1.0027,77.8281,,,,3.6947E+00,,1.0000E-12,,12.6666,12.6791,0.0588,278.235,90.679,89.419,,,,,,,,,,,,
CalCOFI,2101RL,074,,2101_074d,03-Feb-2021 03:01:43,02-Feb-2021 19:01:43,36.18032,-121.72524,070.0 051.0,070.0,051.0,23.000,23.171,,12.5995,,12.5993,,12.5994,33.3480,,33.3538,33.3471,,33.3491,33.3515,5.4718,,5.7267,5.6230,5.3895,,5.7222,5.6351,5.6291,238.364,249.7796,245.3548,234.779,265.5169,245.8808,245.6178,0.1205,,0.7392,, ,, , ,25.1923,,25.1916,,1.0087,77.7115,,,,3.6947E+00,,1.0000E-12,,12.5964,12.5963,0.0616,277.078,90.611,89.248,,,,,,,,,,,,
CalCOFI,2101RL,074,,2101_074d,03-Feb-2021 03:01:47,02-Feb-2021 19:01:47,36.18033,-121.72524,070.0 051.0,070.0,051.0,24.000,24.178,,12.5905,,12.5893,,12.5899,33.3505,,33.3563,33.3488,,33.3508,33.3536,5.4803,,5.7356,5.6319,5.3924,,5.7253,5.6382,5.6351,238.734,250.1670,245.7437,234.906,265.9284,246.0175,245.8806,0.1293,,0.8113,, ,, , ,25.1960,,25.1949,,1.0025,77.8314,,,,3.6947E+00,,1.0000E-12,,12.5873,12.5861,0.0644,276.752,90.737,89.279,,,,,,,,,,,,
CalCOFI,2101RL,074,,2101_074d,03-Feb-2021 03:01:51,02-Feb-2021 19:01:51,36.18034,-121.72526,070.0 051.0,070.0,051.0,25.000,25.186,,12.5853,,12.5864,,12.5859,33.3536,,33.3594,33.3522,,33.3542,33.3568,5.4558,,5.7099,5.6062,5.3844,,5.7168,5.6296,5.6179,237.668,249.0511,244.6232,234.558,264.7429,245.6428,245.1330,0.1244,,0.7711,, ,, , ,25.1994,,25.1981,,0.9947,77.9827,,,,3.6947E+00,,1.0000E-12,,12.5820,12.5831,0.0672,276.451,90.324,89.143,,,,,,,,,,,,
CalCOFI,2101RL,074,,2101_074d,03-Feb-2021 03:01:52,02-Feb-2021 19:01:52,36.18034,-121.72526,070.0 051.0,070.0,051.0,26.000,26.193,,12.5912,,12.5923,,12.5918,33.3561,,33.3619,33.3547,,33.3567,33.3593,5.4755,,5.7306,5.6269,5.3838,,5.7161,5.6289,5.6279,238.526,249.9492,245.5250,234.529,265.6971,245.6116,245.5683,0.1286,,0.8056,, ,, , ,25.2003,,25.1990,,0.9868,78.1373,,,,3.6947E+00,,1.0000E-12,,12.5878,12.5889,0.0699,276.397,90.663,89.145,,,,,,,,,,,,
CalCOFI,2101RL,074,,2101_074d,03-Feb-2021 03:01:55,02-Feb-2021 19:01:55,36.18032,-121.72524,070.0 051.0,070.0,051.0,27.000,27.201,,12.5944,,12.5935,,12.5940,33.3595,,33.3653,33.3577,,33.3597,33.3625,5.4417,,5.6952,5.5914,5.3561,,5.6867,5.5991,5.5953,237.052,248.4062,243.9756,233.322,264.0579,244.3119,244.1438,0.1304,,0.8203,, ,, , ,25.2023,,25.2011,,0.9831,78.2092,,,,3.6947E+00,,1.0000E-12,,12.5909,12.5899,0.0727,276.228,90.111,88.690,,,,,,,,,,,,
CalCOFI,2101RL,074,,2101_074d,03-Feb-2021 03:01:58,02-Feb-2021 19:01:58,36.18032,-121.72524,070.0 051.0,070.0,051.0,28.000,28.209,,12.5760,,12.5751,,12.5756,33.3708,,33.3766,33.3696,,33.3716,33.3741,5.3867,,5.6376,5.5336,5.3189,,5.6472,5.5591,5.5464,234.651,245.8929,241.4518,231.701,261.3880,242.5665,242.0092,0.1313,,0.8277,, ,, , ,25.2146,,25.2139,,0.9539,78.7834,,,,3.6947E+00,,1.0000E-12,,12.5723,12.5714,0.0755,275.083,89.171,88.048,,,,,,,,,,,,
CalCOFI,2101RL,074,,2101_074d,03-Feb-2021 03:02:00,02-Feb-2021 19:02:00,36.18032,-121.72525,070.0 051.0,070.0,051.0,29.000,29.216,,12.5150,,12.5150,,12.5150,33.3687,,33.3745,33.3675,,33.3695,33.3720,5.3931,,5.6443,5.5404,5.3084,,5.6361,5.5478,5.5441,234.929,246.1839,241.7440,231.240,261.6971,242.0701,241.9071,0.1142,,0.6876,, ,, , ,25.2248,,25.2239,,0.9533,78.7935,,,,3.6947E+00,,1.0000E-12,,12.5112,12.5112,0.0783,274.132,89.163,87.762,,,,,,,,,,,,
CalCOFI,2101RL,074,,2101_074d,03-Feb-2021 03:02:03,02-Feb-2021 19:02:03,36.18032,-121.72526,070.0 051.0,070.0,051.0,30.000,30.224,,12.5018,,12.5021,,12.5020,33.3725,,33.3783,33.3711,,33.3731,33.3757,5.3583,,5.6079,5.5038,5.2891,,5.6156,5.5271,5.5155,233.412,244.5959,240.1494,230.400,260.0102,241.1657,240.6576,0.1113,,0.6638,, ,, , ,25.2304,,25.2292,,0.9500,78.8593,,,,3.6947E+00,,1.0000E-12,,12.4978,12.4981,0.0810,273.633,88.566,87.422,,,,,,,,,,,,
CalCOFI,2101RL,074,,2101_074d,03-Feb-2021 03:02:05,02-Feb-2021 19:02:05,36.18032,-121.72526,070.0 051.0,070.0,051.0,31.000,31.231,,12.4890,,12.4888,,12.4889,33.3818,,33.3876,33.3802,,33.3822,33.3849,5.3219,,5.5698,5.4656,5.2537,,5.5780,5.4890,5.4773,231.827,242.9367,238.4833,228.856,258.2477,239.5032,238.9933,0.1084,,0.6400,, ,, , ,25.2400,,25.2388,,0.9297,79.2606,,,,3.6947E+00,,1.0000E-12,,12.4849,12.4848,0.0838,272.739,87.947,86.819,,,,,,,,,,,,
CalCOFI,2101RL,074,,2101_074d,03-Feb-2021 03:02:07,02-Feb-2021 19:02:07,36.18032,-121.72525,070.0 051.0,070.0,051.0,32.000,32.239,,12.4406,,12.4398,,12.4402,33.3887,,33.3945,33.3867,,33.3887,33.3916,5.2897,,5.5361,5.4318,5.2201,,5.5423,5.4529,5.4424,230.418,241.4618,237.0022,227.387,256.6808,237.9214,237.4618,0.1030,,0.5958,, ,, , ,25.2547,,25.2533,,0.9224,79.4060,,,,3.6947E+00,,1.0000E-12,,12.4364,12.4356,0.0865,271.364,87.329,86.178,,,,,,,,,,,,
CalCOFI,2101RL,074,,2101_074d,03-Feb-2021 03:02:09,02-Feb-2021 19:02:09,36.18032,-121.72524,070.0 051.0,070.0,051.0,33.000,33.246,,12.3710,,12.3730,,12.3720,33.3915,,33.3973,33.3909,,33.3929,33.3951,5.2499,,5.4944,5.3900,5.1771,,5.4966,5.4066,5.3983,228.681,239.6435,235.1763,225.510,254.7493,235.9003,235.5383,0.0970,,0.5466,, ,, , ,25.2703,,25.2694,,0.9487,78.8876,,,,3.6947E+00,,1.0000E-12,,12.3667,12.3687,0.0893,269.906,86.548,85.351,,,,,,,,,,,,
CalCOFI,2101RL,074,,2101_074d,03-Feb-2021 03:02:11,02-Feb-2021 19:02:11,36.18032,-121.72524,070.0 051.0,070.0,051.0,34.000,34.254,,12.3787,,12.3814,,12.3801,33.4156,,33.4214,33.4147,,33.4167,33.4191,5.2016,,5.4439,5.3393,5.1248,,5.4411,5.3504,5.3449,226.576,237.4400,232.9636,223.228,252.4085,233.4432,233.2034,0.0887,,0.4786,, ,, , ,25.2875,,25.2864,,0.8939,79.9741,,,,3.6947E+00,,1.0000E-12,,12.3742,12.3770,0.0920,268.294,85.780,84.516,,,,,,,,,,,,
CalCOFI,2101RL,074,,2101_074d,03-Feb-2021 03:02:14,02-Feb-2021 19:02:14,36.18032,-121.72524,070.0 051.0,070.0,051.0,35.000,35.261,,12.2986,,12.2978,,12.2982,33.4125,,33.4183,33.4114,,33.4134,33.4159,5.1188,,5.3572,5.2524,5.0575,,5.3696,5.2780,5.2652,222.965,233.6600,229.1679,220.296,248.3930,230.2862,229.7271,0.0820,,0.4237,, ,, , ,25.3005,,25.2998,,0.9043,79.7678,,,,3.6947E+00,,1.0000E-12,,12.2941,12.2933,0.0947,267.077,84.271,83.260,,,,,,,,,,,,
CalCOFI,2101RL,074,,2101_074d,03-Feb-2021 03:02:15,02-Feb-2021 19:02:15,36.18032,-121.72524,070.0 051.0,070.0,051.0,36.000,36.269,,12.1261,,12.1285,,12.1273,33.4044,,33.4102,33.4035,,33.4055,33.4079,5.1288,,5.3677,5.2629,5.0654,,5.3780,5.2865,5.2747,223.393,234.1080,229.6178,220.633,248.8689,230.6490,230.1334,0.0717,,0.3393,, ,, , ,25.3270,,25.3259,,0.9962,77.9564,,,,3.6947E+00,,1.0000E-12,,12.1214,12.1238,0.0973,264.573,84.126,83.090,,,,,,,,,,,,
CalCOFI,2101RL,074,,2101_074d,03-Feb-2021 03:02:17,02-Feb-2021 19:02:17,36.18031,-121.72524,070.0 051.0,070.0,051.0,37.000,37.276,,12.0835,,12.0863,,12.0849,33.4036,,33.4094,33.4021,,33.4041,33.4068,5.1231,,5.3617,5.2569,5.0700,,5.3828,5.2915,5.2742,223.143,233.8463,229.3550,220.830,248.5909,230.8611,230.1081,0.0728,,0.3483,, ,, , ,25.3345,,25.3329,,1.0206,77.4805,,,,3.6947E+00,,1.0000E-12,,12.0788,12.0815,0.1000,263.882,83.958,83.091,,,,,,,,,,,,
CalCOFI,2101RL,074,,2101_074d,03-Feb-2021 03:02:18,02-Feb-2021 19:02:18,36.18030,-121.72524,070.0 051.0,070.0,051.0,38.000,38.284,,12.0641,,12.0636,,12.0639,33.4080,,33.4138,33.4065,,33.4085,33.4112,5.1308,,5.3698,5.2650,5.0532,,5.3650,5.2734,5.2692,223.478,234.1970,229.7071,220.098,248.9634,230.0730,229.8901,0.0756,,0.3713,, ,, , ,25.3416,,25.3405,,1.0314,77.2720,,,,3.6947E+00,,1.0000E-12,,12.0592,12.0587,0.1027,263.229,84.052,82.779,,,,,,,,,,,,
CalCOFI,2101RL,074,,2101_074d,03-Feb-2021 03:02:20,02-Feb-2021 19:02:20,36.18030,-121.72524,070.0 051.0,070.0,051.0,39.000,39.291,,12.0513,,12.0508,,12.0511,33.4117,,33.4175,33.4099,,33.4119,33.4147,5.1308,,5.3698,5.2650,5.0424,,5.3535,5.2618,5.2634,223.479,234.1980,229.7082,219.628,248.9646,229.5669,229.6376,0.0761,,0.3754,, ,, , ,25.3469,,25.3456,,1.0366,77.1712,,,,3.6947E+00,,1.0000E-12,,12.0463,12.0458,0.1053,262.754,84.032,82.582,,,,,,,,,,,,
CalCOFI,2101RL,074,,2101_074d,03-Feb-2021 03:02:23,02-Feb-2021 19:02:23,36.18030,-121.72524,070.0 051.0,070.0,051.0,40.000,40.299,,12.0723,,12.0737,,12.0730,33.4221,,33.4279,33.4210,,33.4230,33.4255,5.0948,,5.3321,5.2272,5.0135,,5.3228,5.2307,5.2290,221.910,232.5556,228.0589,218.366,247.2198,228.2080,228.1335,0.0766,,0.3795,, ,, , ,25.3510,,25.3499,,1.0192,77.5077,,,,3.6947E+00,,1.0000E-12,,12.0672,12.0685,0.1080,262.388,83.485,82.153,,,,,,,,,,,,
CalCOFI,2101RL,074,,2101_074d,03-Feb-2021 03:02:25,02-Feb-2021 19:02:25,36.18030,-121.72524,070.0 051.0,070.0,051.0,41.000,41.307,,12.1167,,12.1181,,12.1174,33.4426,,33.4484,33.4418,,33.4438,33.4461,5.0504,,5.2856,5.1806,4.9691,,5.2757,5.1829,5.1818,219.973,230.5279,226.0228,216.430,245.0658,226.1234,226.0731,0.0786,,0.3959,, ,, , ,25.3586,,25.3577,,0.9732,78.4039,,,,3.6947E+00,,1.0000E-12,,12.1114,12.1128,0.1106,261.697,82.844,81.512,,,,,,,,,,,,
CalCOFI,2101RL,074,,2101_074d,03-Feb-2021 03:02:27,02-Feb-2021 19:02:27,36.18030,-121.72524,070.0 051.0,070.0,051.0,42.000,42.314,,12.1374,,12.1407,,12.1391,33.4574,,33.4632,33.4573,,33.4593,33.4613,5.0133,,5.2468,5.1416,4.9332,,5.2376,5.1443,5.1430,218.354,228.8332,224.3210,214.868,243.2655,224.4416,224.3813,0.0788,,0.3975,, ,, , ,25.3662,,25.3655,,0.9298,79.2597,,,,3.6947E+00,,1.0000E-12,,12.1320,12.1353,0.1132,261.006,82.279,80.971,,,,,,,,,,,,
CalCOFI,2101RL,074,,2101_074d,03-Feb-2021 03:02:28,02-Feb-2021 19:02:28,36.18030,-121.72524,070.0 051.0,070.0,051.0,43.000,43.322,,12.1774,,12.1771,,12.1773,33.4780,,33.4838,33.4759,,33.4779,33.4809,5.0190,,5.2528,5.1476,4.9161,,5.2194,5.1259,5.1368,218.603,229.0938,224.5827,214.121,243.5424,223.6372,224.1100,0.0792,,0.4008,, ,, , ,25.3746,,25.3731,,0.8781,80.2903,,,,3.6947E+00,,1.0000E-12,,12.1718,12.1715,0.1159,260.234,82.453,80.761,,,,,,,,,,,,
CalCOFI,2101RL,074,,2101_074d,03-Feb-2021 03:02:30,02-Feb-2021 19:02:30,36.18030,-121.72524,070.0 051.0,070.0,051.0,44.000,44.329,,12.1875,,12.1866,,12.1871,33.4821,,33.4879,33.4803,,33.4823,33.4851,5.0164,,5.2501,5.1449,4.9177,,5.2211,5.1277,5.1363,218.486,228.9713,224.4597,214.191,243.4123,223.7126,224.0862,0.0796,,0.4041,, ,, , ,25.3759,,25.3746,,0.8575,80.7055,,,,3.6947E+00,,1.0000E-12,,12.1818,12.1809,0.1185,260.137,82.429,80.806,,,,,,,,,,,,
CalCOFI,2101RL,074,,2101_074d,03-Feb-2021 03:02:31,02-Feb-2021 19:02:31,36.18030,-121.72524,070.0 051.0,070.0,051.0,45.000,45.337,,12.1866,,12.1879,,12.1873,33.4832,,33.4890,33.4816,,33.4836,33.4863,5.0040,,5.2371,5.1319,4.9160,,5.2193,5.1258,5.1289,217.949,228.4092,223.8952,214.117,242.8151,223.6329,223.7641,0.0810,,0.4155,, ,, , ,25.3770,,25.3755,,0.8552,80.7518,,,,3.6947E+00,,1.0000E-12,,12.1808,12.1820,0.1211,260.061,82.225,80.781,,,,,,,,,,,,
CalCOFI,2101RL,074,,2101_074d,03-Feb-2021 03:02:34,02-Feb-2021 19:02:34,36.18030,-121.72524,070.0 051.0,070.0,051.0,46.000,46.345,,12.1795,,12.1807,,12.1801,33.4829,,33.4887,33.4814,,33.4834,33.4861,4.9983,,5.2311,5.1259,4.9120,,5.2150,5.1215,5.1237,217.699,228.1475,223.6325,213.940,242.5371,223.4423,223.5374,0.0834,,0.4352,, ,, , ,25.3781,,25.3767,,0.8467,80.9233,,,,3.6947E+00,,1.0000E-12,,12.1735,12.1747,0.1237,259.980,82.118,80.702,,,,,,,,,,,,
CalCOFI,2101RL,074,,2101_074d,03-Feb-2021 03:02:36,02-Feb-2021 19:02:36,36.18029,-121.72523,070.0 051.0,070.0,051.0,47.000,47.352,,12.1592,,12.1594,,12.1593,33.4807,,33.4865,33.4795,,33.4815,33.4840,5.0279,,5.2621,5.1569,4.9288,,5.2329,5.1396,5.1483,218.986,229.4947,224.9853,214.670,243.9683,224.2284,224.6069,0.0838,,0.4385,, ,, , ,25.3803,,25.3793,,0.8462,80.9336,,,,3.4038E+00,,1.0000E-12,,12.1531,12.1534,0.1263,259.795,82.568,80.940,,,,,,,,,,,,
CalCOFI,2101RL,074,,2101_074d,03-Feb-2021 03:02:38,02-Feb-2021 19:02:38,36.18028,-121.72522,070.0 051.0,070.0,051.0,48.000,48.360,,12.1220,,12.1194,,12.1207,33.4794,,33.4852,33.4780,,33.4800,33.4826,5.0371,,5.2717,5.1666,4.9402,,5.2450,5.1519,5.1593,219.385,229.9124,225.4047,215.165,244.4120,224.7614,225.0831,0.0840,,0.4401,, ,, , ,25.3863,,25.3857,,0.8531,80.7927,,,,3.6937E+00,,1.0000E-12,,12.1158,12.1132,0.1290,259.239,82.654,81.058,,,,,,,,,,,,
CalCOFI,2101RL,074,,2101_074d,03-Feb-2021 03:02:39,02-Feb-2021 19:02:39,36.18028,-121.72522,070.0 051.0,070.0,051.0,49.000,49.367,,12.1025,,12.1025,,12.1025,33.4867,,33.4925,33.4857,,33.4877,33.4901,5.0419,,5.2768,5.1716,4.9451,,5.2502,5.1571,5.1644,219.593,230.1302,225.6234,215.377,244.6433,224.9896,225.3065,0.0901,,0.4901,, ,, , ,25.3957,,25.3949,,0.8496,80.8642,,,,3.6947E+00,,1.0000E-12,,12.0962,12.0962,0.1316,258.375,82.703,81.115,,,,,,,,,,,,
CalCOFI,2101RL,074,,2101_074d,03-Feb-2021 03:02:42,02-Feb-2021 19:02:42,36.18028,-121.72522,070.0 051.0,070.0,051.0,50.000,50.375,,12.0955,,12.0958,,12.0957,33.4974,,33.5032,33.4970,,33.4990,33.5011,5.0413,,5.2761,5.1710,4.9482,,5.2535,5.1605,5.1658,219.565,230.1008,225.5939,215.510,244.6121,225.1328,225.3634,0.0963,,0.5409,, ,, , ,25.4054,,25.4050,,0.8390,81.0779,,,,3.6947E+00,,1.0000E-12,,12.0891,12.0893,0.1342,257.481,82.687,81.160,50,,33.4962,5.136,224.07,,,,,,,
CalCOFI,2101RL,074,,2101_074d,03-Feb-2021 03:02:44,02-Feb-2021 19:02:44,36.18028,-121.72522,070.0 051.0,070.0,051.0,51.000,51.383,,12.0834,,12.0822,,12.0828,33.5090,,33.5148,33.5084,,33.5104,33.5126,4.9768,,5.2086,5.1033,4.9144,,5.2176,5.1241,5.1137,216.755,227.1593,222.6402,214.036,241.4874,223.5457,223.0930,0.0932,,0.5155,, ,, , ,25.4167,,25.4164,,0.8283,81.2968,,,,3.6947E+00,,1.0000E-12,,12.0768,12.0756,0.1367,256.427,81.615,80.588,,,,,,,,,,,,
CalCOFI,2101RL,074,,2101_074d,03-Feb-2021 03:02:45,02-Feb-2021 19:02:45,36.18028,-121.72522,070.0 051.0,070.0,051.0,52.000,52.390,,12.0495,,12.0489,,12.0492,33.5171,,33.5229,33.5157,,33.5177,33.5203,4.9550,,5.1858,5.0804,4.8811,,5.1822,5.0883,5.0844,215.802,226.1617,221.6384,212.582,240.4276,221.9801,221.8093,0.0838,,0.4385,, ,, , ,25.4294,,25.4285,,0.8155,81.5557,,,,3.6947E+00,,1.0000E-12,,12.0428,12.0422,0.1393,255.243,81.203,79.990,,,,,,,,,,,,
CalCOFI,2101RL,074,,2101_074d,03-Feb-2021 03:02:47,02-Feb-2021 19:02:47,36.18028,-121.72522,070.0 051.0,070.0,051.0,53.000,53.398,,12.0212,,12.0198,,12.0205,33.5152,,33.5210,33.5137,,33.5157,33.5184,4.9262,,5.1557,5.0502,4.8541,,5.1535,5.0593,5.0548,214.547,224.8480,220.3192,211.406,239.0320,220.7139,220.5166,0.0801,,0.4081,, ,, , ,25.4333,,25.4323,,0.8178,81.5094,,,,3.6947E+00,,1.0000E-12,,12.0143,12.0129,0.1419,254.896,80.682,79.498,,,,,,,,,,,,